CARTOSAT-2E

Last updated on Sun Aug 31 2025 00:02:31 GMT+0000 (Coordinated Universal Time)

1 42767U 17036C 25242.32032549 .00007518 00000+0 36005-3 0 9993 2 42767 97.4711 301.1651 0002535 228.3469 131.7548 15.19229880453986

Satellite not in orbit